NAVSTAR 77 (USA 289) (43873 NORAD) Tracking and Keplerian Element Data

This shows tracking and keplerian element data for the satellite.

Feedback or suggestion? Click here.




ElementValue
Catalog43873
NameNAVSTAR 77 (USA 289)
Epoch Orbit75
Epoch Day19.28917603
Epoch Year2019
RAAN199.0801
Inclination55.0012
Eccentricity0.000541
Argument of Perigee270.1695
Mean Anonmoly89.7814
Mean Motion2.00572156
Decay Rate9.4E-07
L11 43873U 18109A 19019.28917603 .00000094 00000-0 00000-0 0 9993
L22 43873 55.0012 199.0801 0005410 270.1695 89.7814 2.00572156 755

Live tracking and technical data element details for NAVSTAR 77 (USA 289) (NORAD 43873). NAVSTAR 77 (USA 289) can be tracked NOW for your location showing map with azimuth and elevation plus other details from your city location.

Track the satellite on the map from your city or location and see movement details for azimuth, elevation, latitude, longitude, range, height, and movement on the map or in text.







IsCatalogInMostPopularTable: catalog: 43873, numindb: 408
Update: records affected: 1



GetName: 43873 NAVSTAR 77 (USA 289)

Hit Count: updated at: Mon, 22 Jul 2019 12:57:48 GMT